FW6343 Weather Reports


time (UTC)temp
F
wind
direction
speed
knots
gust
knots
rain 1hr
in
rain 24hr
in
rain mn
in
humidity
%
barometer
mb
20260509021909 60 0 0.0 0.0 0.00 0.00 0.00 78 1015.6
20260509020457 60 0 0.0 0.0 0.00 0.00 0.00 78 1015.5
20260509014908 61 0 0.0 0.0 0.00 0.00 0.00 77 1015.4
20260509013517 61 0 0.0 0.0 0.00 0.00 0.00 76 1015.2
20260509013324 61 0 0.0 0.0 0.00 0.00 0.00 76 1015.2
20260509012022 62 0 0.0 0.0 0.00 0.00 0.00 75 1015.1
20260509011919 62 0 0.0 0.0 0.00 0.00 0.00 75 1015.1
20260509010411 62 0 0.0 0.0 0.00 0.00 0.00 74 1015.2
20260509004938 63 0 0.0 0.0 0.00 0.00 0.00 72 1015.0
20260509004822 63 0 0.0 0.0 0.00 0.00 0.00 72 1015.0
20260509003354 64 0 0.0 0.0 0.00 0.00 0.00 72 1014.8
20260509001910 64 0 0.0 0.0 0.00 0.00 0.00 71 1015.0
20260509000511 65 0 0.0 0.0 0.00 0.00 0.00 70 1015.0
20260509000351 65 0 0.0 0.0 0.00 0.00 0.00 70 1015.0
20260508234922 66 0 0.0 0.0 0.00 0.00 0.00 69 1014.9
20260508233422 66 0 0.0 0.0 0.00 0.00 0.00 69 1015.0
20260508231915 66 0 0.0 0.0 0.00 0.00 0.00 68 1014.7
20260508230431 67 0 0.0 0.0 0.00 0.00 0.00 68 1014.9
20260508224854 67 0 0.0 0.0 0.00 0.00 0.00 66 1014.8
20260508223524 68 0 0.0 0.0 0.00 0.00 0.00 64 1014.8
20260508223334 68 0 0.0 0.0 0.00 0.00 0.00 64 1014.8
20260508221949 68 0 0.0 0.9 0.00 0.00 0.00 62 1014.7
20260508220521 68 0 0.0 0.0 0.00 0.00 0.00 62 1014.7
20260508220329 68 0 0.0 0.0 0.00 0.00 0.00 62 1014.7
20260508214950 69 0 0.0 0.9 0.00 0.00 0.00 59 1014.7
20260508214841 69 0 0.0 0.9 0.00 0.00 0.00 59 1014.7
20260508213428 69 0 0.0 0.9 0.00 0.00 0.00 58 1014.7
20260508211910 69 0 0.0 4.3 0.00 0.00 0.00 57 1014.9
20260508210355 69 0 0.0 2.6 0.00 0.00 0.00 57 1015.0
20260508204937 70 0 1.7 6.1 0.00 0.00 0.00 54 1014.7
20260508203441 69 0 0.9 4.3 0.00 0.00 0.00 53 1015.1
20260508203328 69 0 0.9 4.3 0.00 0.00 0.00 53 1015.1
20260508201921 70 0 1.7 5.2 0.00 0.00 0.00 54 1015.2
20260508200357 70 161 1.7 6.1 0.00 0.00 0.00 51 1015.3
20260508194955 70 0 1.7 6.1 0.00 0.00 0.00 51 1015.5
20260508194852 70 0 1.7 6.1 0.00 0.00 0.00 51 1015.5
20260508193424 70 0 1.7 5.2 0.00 0.00 0.00 50 1015.9
20260508191942 70 232 1.7 7.0 0.00 0.00 0.00 49 1016.3
20260508190407 69 0 1.7 5.2 0.00 0.00 0.00 48 1016.3
20260508185029 69 207 2.6 7.0 0.00 0.00 0.00 47 1016.4
20260508184915 69 207 2.6 7.0 0.00 0.00 0.00 47 1016.4
20260508183501 70 0 0.9 7.0 0.00 0.00 0.00 48 1016.6
20260508183351 70 0 0.9 7.0 0.00 0.00 0.00 48 1016.6
20260508181948 70 263 0.9 6.1 0.00 0.00 0.00 48 1016.8
20260508181837 70 263 0.9 6.1 0.00 0.00 0.00 48 1016.8
20260508180515 69 181 2.6 7.8 0.00 0.00 0.00 49 1017.0
20260508174921 68 156 3.5 8.7 0.00 0.00 0.00 49 1017.2
20260508173343 68 204 0.9 6.1 0.00 0.00 0.00 50 1017.4
20260508172018 69 199 3.5 7.8 0.00 0.00 0.00 48 1017.7
20260508170419 67 140 0.9 7.8 0.00 0.00 0.00 53 1017.8
20260508164949 68 121 3.5 8.7 0.00 0.00 0.00 50 1018.1
20260508163422 67 141 0.9 9.6 0.00 0.00 0.00 56 1018.2
20260508161930 67 166 3.5 8.7 0.00 0.00 0.00 52 1018.4
20260508160516 65 0 0.9 7.0 0.00 0.00 0.00 53 1018.6
20260508160351 65 0 0.9 7.0 0.00 0.00 0.00 53 1018.6
20260508155023 65 0 0.0 7.8 0.00 0.00 0.00 54 1018.6
20260508154851 65 0 0.0 7.8 0.00 0.00 0.00 54 1018.6
20260508153351 65 0 0.0 4.3 0.00 0.00 0.00 55 1019.0
20260508152027 66 0 1.7 4.3 0.00 0.00 0.00 55 1019.1
20260508150518 65 126 0.9 7.0 0.00 0.00 0.00 57 1019.1
20260508150411 65 126 0.9 7.0 0.00 0.00 0.00 57 1019.1
20260508145015 64 118 2.6 7.8 0.00 0.00 0.00 58 1019.0
20260508143402 64 0 0.0 5.2 0.00 0.00 0.00 59 1018.9
20260508141831 62 136 0.0 6.1 0.00 0.00 0.00 61 1018.9
20260508140454 61 0 0.0 0.9 0.00 0.00 0.00 63 1019.3
20260508140338 61 0 0.0 0.9 0.00 0.00 0.00 63 1019.3
20260508135035 60 0 0.0 0.0 0.00 0.02 0.00 68 1019.4
20260508134842 60 0 0.0 0.0 0.00 0.02 0.00 68 1019.4
20260508133426 58 0 0.0 0.0 0.00 0.02 0.00 72 1019.4
20260508131903 57 0 0.0 0.0 0.00 0.02 0.00 71 1019.4
20260508130425 56 0 0.0 0.0 0.00 0.02 0.00 73 1019.4
20260508125011 55 0 0.0 0.0 0.00 0.11 0.00 75 1019.1
20260508124828 55 0 0.0 0.0 0.00 0.11 0.00 75 1019.1
20260508123521 53 0 0.0 0.0 0.00 0.11 0.00 79 1018.8
20260508123419 53 0 0.0 0.0 0.00 0.11 0.00 79 1018.8
20260508122031 52 0 0.0 0.0 0.00 0.11 0.00 80 1018.5
20260508121920 52 0 0.0 0.0 0.00 0.11 0.00 80 1018.5
20260508120443 52 0 0.0 0.0 0.00 0.11 0.00 82 1018.3
20260508114954 50 0 0.0 0.0 0.00 0.17 0.00 85 1018.1
20260508114844 50 0 0.0 0.0 0.00 0.17 0.00 85 1018.1
20260508113351 49 0 0.0 0.0 0.00 0.17 0.00 86 1018.0
20260508111919 49 0 0.0 0.0 0.00 0.17 0.00 87 1017.7
20260508110459 48 0 0.0 0.0 0.00 0.17 0.00 87 1017.1
20260508104832 48 0 0.0 0.0 0.00 0.38 0.00 86 1017.0
20260508103426 48 0 0.0 0.0 0.00 0.38 0.00 86 1016.7
20260508101922 48 0 0.0 0.0 0.00 0.38 0.00 85 1016.6
20260508100430 49 0 0.0 0.0 0.00 0.38 0.00 85 1016.4
20260508095023 49 0 0.0 0.0 0.00 0.45 0.00 85 1016.2
20260508094911 49 0 0.0 0.0 0.00 0.45 0.00 85 1016.2
20260508093535 49 0 0.0 0.0 0.00 0.45 0.00 85 1016.1
20260508093410 49 0 0.0 0.0 0.00 0.45 0.00 85 1016.1
20260508092012 49 0 0.0 0.0 0.00 0.45 0.00 85 1015.9
20260508091848 49 0 0.0 0.0 0.00 0.45 0.00 85 1015.9
20260508090414 50 0 0.0 0.0 0.00 0.45 0.00 85 1015.8
20260508085012 50 0 0.0 0.9 0.00 0.50 0.00 84 1015.6
20260508084848 50 0 0.0 0.9 0.00 0.50 0.00 84 1015.6
20260508083351 50 0 0.0 0.0 0.00 0.50 0.00 83 1015.5
20260508081857 50 0 0.0 0.0 0.00 0.50 0.00 83 1015.5
20260508080401 50 0 0.0 0.0 0.00 0.50 0.00 84 1015.4
20260508074902 50 0 0.0 0.0 0.00 0.71 0.00 84 1015.5
20260508073439 50 0 0.0 0.0 0.00 0.71 0.00 84 1015.5
20260508071926 50 0 0.0 0.0 0.00 0.71 0.00 84 1015.6
20260508070513 51 0 0.0 0.0 0.00 0.71 0.00 84 1015.5
20260508070355 51 0 0.0 0.0 0.00 0.71 0.00 84 1015.5
20260508065015 51 0 0.0 0.0 0.00 0.78 0.00 85 1015.5
20260508063458 51 0 0.0 0.0 0.00 0.78 0.00 84 1015.4
20260508063333 51 0 0.0 0.0 0.00 0.78 0.00 84 1015.4
20260508061925 51 0 0.0 0.0 0.00 0.78 0.00 84 1015.4
20260508060430 52 0 0.0 0.0 0.00 0.78 0.00 83 1015.5
20260508055017 52 0 0.0 0.0 0.00 0.99 0.00 82 1015.5
20260508054908 52 0 0.0 0.0 0.00 0.99 0.00 82 1015.5
20260508053526 53 0 0.0 0.0 0.00 0.99 0.00 82 1015.6
20260508053344 53 0 0.0 0.0 0.00 0.99 0.00 82 1015.6
20260508052017 53 0 0.0 0.0 0.00 0.99 0.00 82 1015.5
20260508051905 53 0 0.0 0.0 0.00 0.99 0.00 82 1015.5
20260508050458 53 0 0.0 0.0 0.00 0.99 0.00 82 1015.5
20260508050327 53 0 0.0 0.0 0.00 0.99 0.00 82 1015.5
20260508045008 54 0 0.0 0.0 0.00 1.26 0.00 81 1015.4
20260508043522 54 0 0.0 0.0 0.00 1.26 0.00 80 1015.3
20260508043357 54 0 0.0 0.0 0.00 1.26 0.00 80 1015.3
20260508041910 55 0 0.0 0.0 0.00 1.26 0.00 79 1015.2
20260508040402 56 0 0.0 0.0 0.00 1.26 0.00 79 1015.1
20260508034919 56 0 0.0 0.0 0.00 1.28 1.26 79 1014.9
20260508033419 57 0 0.0 0.0 0.00 1.28 1.26 76 1015.0
20260508031930 57 0 0.0 0.0 0.00 1.28 1.26 76 1015.0
20260508030528 59 0 0.0 0.0 0.00 1.28 1.26 73 1015.0
20260508030406 59 0 0.0 0.0 0.00 1.28 1.26 73 1015.0
20260508025008 59 0 0.0 0.0 0.00 1.28 1.26 71 1014.8
20260508024825 59 0 0.0 0.0 0.00 1.28 1.26 71 1014.8
20260508023530 60 0 0.0 0.0 0.00 1.28 1.26 70 1014.6
20260508023419 60 0 0.0 0.0 0.00 1.28 1.26 70 1014.6